{"data":{"norad_id":62410,"intl_designator":"2024-249B","name":"STARLINK-11493 [DTC]","alt_names":[],"object_type":"PAYLOAD","status":"ACTIVE","operator":null,"country":"US","launch_date":"2024-12-23","launch_site_code":"AFETR","launch_vehicle":null,"mission":null,"orbit_class":"UNKNOWN","rcs_meters":null,"size_class":null,"mass_kg":null,"dimensions":null,"purposes":["comms"],"wikipedia_slug":null,"has_3d_model":false,"image_url":null,"decayed_at":null,"tle_current":{"epoch":"2026-09-20T17:54:16.716384Z","epoch_age_seconds":153320,"freshness":"FRESH","line1":"1 62410U 24249B   26263.74602681  .00102096  00000+0  78841-3 0  9995","line2":"2 62410  43.0012  72.3052 0001827 274.3173  85.7486 15.70870063100151","mean_motion":15.70870063,"eccentricity":0.0001827,"inclination_deg":43.0012,"raan_deg":72.3052,"arg_perigee_deg":274.3173,"mean_anomaly_deg":85.7486,"bstar":0.00078841,"rev_number":10015,"period_min":91.668944104131,"perigee_km":355.17873567926,"apogee_km":357.63953883782,"semimajor_km":6734.5461372585,"source":"CELESTRAK","updated_at":"2026-09-22T09:00:49.575564Z"}}}